DELTA 1 DEB, 42635

Orbit data source: Space-Track

DELTA 1 DEB, 42635 is space debris in SSO originally from a launch on Thu, 12 Jun 1975 UTC launched from the Air Force Western Test Range (AFWTR). Debris objects in space refer to the collection of defunct objects orbiting the Earth. Examples of debris include non-operational satellites, rocket bodies, and fragments generated from explosions, collisions, or faulty payload assembly.

Loading next visibility...
DELTA 1 DEB details
Identifier
42635, 1975-052LU
Orbit
SSO
Last TLE update1 day ago
Origin
Flag of USGSFC (US)
ManufacturerUnknown
MissionSpacecraft
Bus & MotorUnknown
MassUnknown
Launch date (UTC)
1975-06-12 (50 years ago)
Launch vehicleUnknown
Launch site
Air Force Western Test Range (AFWTR)
Object type
Payload
Rocket body
Debris
Shape & HBRUnknown
Radar Cross SectionSmall (<0.1 m²)

Expand to show TLE details & history

TLE from 1 day ago
0 DELTA 1 DEB
1 42635U 75052LU  24360.50974891  .00000304  00000-0  49112-3 0  9994
2 42635  99.7845 267.8103 0044340 189.6268 345.0445 13.56566405548964
Epoch: 2024-12-25T12:14Z
Definitive object data (Epoch: 2024-12-25T12:14:02.305Z)
Latitude5.30037°
Longitude170.71019°
Altitude1,018.649 km
Speed7.359 km/s
True Right ascension05h 54m 53s
True Declination5° 16' 12"
Sunlit
Object was in full shadow at TLE epoch
Visualization TLE readout
Latitude44.82652°
Longitude-18.87509°
Altitude1,080.448 km
Speed7.304 km/s
Apparent Right ascension21h 43m 30s
Apparent Declination23° 44' 01"
Sunlit
Object is in daylight
Visualization observer readout
Local Sidereal Time15:17:24
Azimuth67.569° E
Elevation10.281°
Doppler factor1
Orbital elements
Apogee altitude1,078.41 km
Perigee altitude1,012.577 km
Semi-major axis7,423.631 km
Eccentricity0.004434
Inclination99.7845°
RAAN267.8103°
Arg. of periapsis189.6268°
True anomaly344.91267°
Mean anomaly345.0445°
Eccentric anomaly344.97866°
Mean motion3.39327 °/min
BSTAR0.00049112
Orbital period106.09 mins
Loading maneuver chart data...
Loading historical data...
Loading historical data...
Loading historical data...
Loading historical data...
Loading historical data...
Loading historical data...
Loading historical data...

DELTA 1 DEB Visibility forecast

Observer location: undefined°, undefined

Span
Click to sort rows by Start time (UTC) header in descending order
Start Az.
Max El. time (UTC)
Max El. Az.
Max El.
End time (UTC)
End Az.
11 mins2024-12-26 17:35:19.475Z148.264° SSE2024-12-26 17:40:19.475Z75.042° E42.225°2024-12-26 17:46:19.475Z352° N
7 mins2024-12-26 19:22:19.475Z232.891° WSW2024-12-26 19:25:19.475Z265.492° W19.409°2024-12-26 19:29:19.475Z307.543° NW
10 mins2024-12-27 06:28:19.475Z30.55° NE2024-12-27 06:33:19.475Z108.084° ESE37.324°2024-12-27 06:38:19.475Z172.519° S
9 mins2024-12-27 08:13:19.475Z345.543° N2024-12-27 08:17:19.475Z298.505° NW24.558°2024-12-27 08:22:19.475Z243.861° WSW
|